Weather History for KBDN - March, 2013

Change the Weather History Date:

Thursday, March 7, 2013

  Actual Average (KRDM) Record (KRDM)
Temperature  
Mean Temperature 34 °F 38 °F  
Max Temperature 44 °F 52 °F 71 °F (2004)
Min Temperature 23 °F 25 °F 11 °F (2012)
Degree Days  
Heating Degree Days 32 27  
Month to date heating degree days 191  
Since 1 July heating degree days 4864  
Cooling Degree Days 0 0  
Month to date cooling degree days 0  
Year to date cooling degree days 0  
Moisture  
Dew Point 15 °F    
Average Humidity 52    
Maximum Humidity 80    
Minimum Humidity 20    
Precipitation  
Precipitation 0.00 in 0.02 in 0.41 in (1960)
Month to date precipitation 0.14  
Year to date precipitation 1.76  
Sea Level Pressure  
Sea Level Pressure 29.95 in    
Wind  
Wind Speed 5 mph (SSE)    
Max Wind Speed 8 mph    
Max Gust Speed 20 mph    
Visibility 10 miles    
Events Thunderstorm    
T = Trace of Precipitation, MM = Missing Value Source: NWS Daily Summary

Daily Weather History Graph

Daily Weather History Graph

Search for Another Location

Airport or City:

Trip Planner

Search our weather history database for the weather conditions in past years. The results will help you decide how hot, cold, wet, or windy it might be!

Date:

Astronomy

Mar. 07, 2013 Rise Set
Actual Time 6:30 AM PST 6:01 PM PST
Civil Twilight 6:01 AM PST 6:30 PM PST
Nautical Twilight 5:28 AM PST 7:03 PM PST
Astronomical Twilight 4:54 AM PST 7:37 PM PST
Moon 3:42 AM PST (3/7) 1:48 PM PST (3/7)
Length of Visible Light 12h 28m
Length of Day
11h 30m
Waning Crescent, 19% of the Moon is Illuminated
Mar 7
Waning Crescent
Mar 11
New
Mar 19
First Quarter
Mar 27
Full
Apr 2
Last Quarter

Hourly Weather History & Observations

Time (PST) Temp. Windchill Dew Point Humidity Pressure Visibility Wind Dir Wind Speed Gust Speed Precip Events Conditions
12:15 AM 28.4 °F 23.3 °F 15.8 °F 59% 29.92 in 10.0 mi SSE 4.6 mph - N/A   Clear
12:35 AM 26.6 °F - 15.8 °F 64% 29.93 in 10.0 mi Calm Calm - N/A   Clear
12:55 AM 26.6 °F 19.1 °F 15.8 °F 64% 29.93 in 10.0 mi South 6.9 mph - N/A   Clear
1:15 AM 26.6 °F 19.1 °F 15.8 °F 64% 29.93 in 10.0 mi SSW 6.9 mph - N/A   Clear
1:35 AM 26.6 °F 18.2 °F 15.8 °F 64% 29.94 in 10.0 mi SSE 8.1 mph - N/A   Clear
1:55 AM 26.6 °F 20.0 °F 15.8 °F 64% 29.94 in 10.0 mi SSE 5.8 mph - N/A   Clear
2:15 AM 26.6 °F 20.0 °F 14.0 °F 59% 29.95 in 10.0 mi SE 5.8 mph - N/A   Clear
2:35 AM 26.6 °F 21.2 °F 14.0 °F 59% 29.95 in 10.0 mi SSE 4.6 mph - N/A   Clear
2:55 AM 24.8 °F 17.9 °F 14.0 °F 64% 29.94 in 10.0 mi South 5.8 mph - N/A   Clear
3:15 AM 24.8 °F 17.9 °F 15.8 °F 69% 29.94 in 10.0 mi South 5.8 mph - N/A   Clear
3:35 AM 26.6 °F 19.1 °F 15.8 °F 64% 29.94 in 10.0 mi South 6.9 mph - N/A   Clear
3:55 AM 26.6 °F 18.2 °F 15.8 °F 64% 29.94 in 10.0 mi SSW 8.1 mph - N/A   Clear
4:15 AM 26.6 °F 19.1 °F 15.8 °F 64% 29.94 in 10.0 mi South 6.9 mph - N/A   Clear
4:35 AM 26.6 °F 21.2 °F 15.8 °F 64% 29.95 in 10.0 mi South 4.6 mph - N/A   Clear
4:55 AM 24.8 °F 20.5 °F 15.8 °F 69% 29.95 in 10.0 mi SE 3.5 mph - N/A   Clear
5:15 AM 24.8 °F 16.9 °F 15.8 °F 69% 29.96 in 10.0 mi SSE 6.9 mph - N/A   Clear
5:35 AM 24.8 °F 16.9 °F 15.8 °F 69% 29.96 in 10.0 mi SSE 6.9 mph - N/A   Clear
5:55 AM 24.8 °F 16.9 °F 15.8 °F 69% 29.96 in 10.0 mi South 6.9 mph - N/A   Clear
6:15 AM 24.8 °F 20.5 °F 15.8 °F 69% 29.96 in 10.0 mi SSW 3.5 mph - N/A   Clear
6:35 AM 23.0 °F 17.0 °F 15.8 °F 74% 29.98 in 10.0 mi ESE 4.6 mph - N/A   Clear
6:55 AM 23.0 °F 15.8 °F 15.8 °F 74% 29.98 in 10.0 mi SSE 5.8 mph - N/A   Clear
7:15 AM 24.8 °F 19.1 °F 15.8 °F 69% 29.99 in 10.0 mi SSE 4.6 mph - N/A   Clear
7:35 AM 26.6 °F 21.2 °F 15.8 °F 64% 29.99 in 10.0 mi South 4.6 mph - N/A   Clear
7:55 AM 28.4 °F - 15.8 °F 59% 29.99 in 10.0 mi Calm Calm - N/A   Clear
8:15 AM 32.0 °F 25.6 °F 15.8 °F 51% 29.99 in 10.0 mi SE 6.9 mph - N/A   Clear
8:35 AM 32.0 °F 27.5 °F 15.8 °F 51% 29.99 in 10.0 mi SE 4.6 mph - N/A   Clear
8:55 AM 32.0 °F 27.5 °F 15.8 °F 51% 29.99 in 10.0 mi ESE 4.6 mph - N/A   Clear
9:15 AM 33.8 °F - 15.8 °F 48% 29.99 in 10.0 mi Calm Calm - N/A   Clear
9:35 AM 35.6 °F 32.8 °F 14.0 °F 41% 29.99 in 10.0 mi South 3.5 mph - N/A   Clear
9:55 AM 37.4 °F - 15.8 °F 41% 29.99 in 10.0 mi Calm Calm - N/A   Clear
10:15 AM 37.4 °F - 14.0 °F 38% 29.98 in 9.0 mi Calm Calm - N/A   Clear
10:35 AM 37.4 °F 33.8 °F 10.4 °F 33% 29.98 in 8.0 mi SE 4.6 mph - N/A   Clear
10:55 AM 39.2 °F 34.2 °F 10.4 °F 31% 29.98 in 10.0 mi ESE 6.9 mph - N/A   Clear
11:15 AM 39.2 °F 35.9 °F 8.6 °F 28% 29.97 in 10.0 mi ESE 4.6 mph - N/A   Clear
11:35 AM 41.0 °F - 8.6 °F 26% 29.97 in 10.0 mi Calm Calm - N/A   Clear
11:55 AM 39.2 °F 35.0 °F 10.4 °F 31% 29.97 in 10.0 mi SE 5.8 mph - N/A   Clear
12:15 PM 41.0 °F 37.1 °F 10.4 °F 29% 29.96 in 10.0 mi NE 5.8 mph - N/A   Partly Cloudy
12:35 PM 41.0 °F - 10.4 °F 29% 29.95 in 10.0 mi Calm Calm - N/A   Scattered Clouds
12:55 PM 41.0 °F 38.0 °F 10.4 °F 29% 29.94 in 10.0 mi ESE 4.6 mph - N/A   Mostly Cloudy
1:15 PM 41.0 °F 36.4 °F 15.8 °F 36% 29.95 in 6.0 mi ESE 6.9 mph 19.6 mph N/A   Haze
1:35 PM 41.0 °F 38.0 °F 12.2 °F 31% 29.94 in 10.0 mi SSE 4.6 mph - N/A   Partly Cloudy
1:55 PM 42.8 °F 41.1 °F 10.4 °F 27% 29.93 in 10.0 mi ESE 3.5 mph - N/A   Clear
2:15 PM 42.8 °F - 10.4 °F 27% 29.93 in 10.0 mi Calm Calm - N/A   Partly Cloudy
2:35 PM 42.8 °F 40.1 °F 8.6 °F 25% 29.92 in 10.0 mi ESE 4.6 mph - N/A   Partly Cloudy
2:55 PM 44.6 °F 40.7 °F 6.8 °F 21% 29.92 in 10.0 mi East 6.9 mph - N/A   Partly Cloudy
3:15 PM 44.6 °F 40.7 °F 8.6 °F 23% 29.92 in 10.0 mi ESE 6.9 mph - N/A   Scattered Clouds
3:35 PM 44.6 °F 41.4 °F 6.8 °F 21% 29.92 in 10.0 mi East 5.8 mph - N/A   Partly Cloudy
3:55 PM 44.6 °F 43.1 °F 5.0 °F 20% 29.91 in 10.0 mi East 3.5 mph - N/A   Clear
5:35 PM 39.2 °F - 10.4 °F 31% 29.92 in 10.0 mi Calm Calm - N/A   Clear
5:55 PM 37.4 °F - 10.4 °F 33% 29.92 in 10.0 mi Calm Calm - N/A   Clear
6:15 PM 35.6 °F - 12.2 °F 38% 29.93 in 10.0 mi Calm Calm - N/A Thunderstorm Clear
6:35 PM 32.0 °F - 14.0 °F 48% 29.94 in 10.0 mi Calm Calm - N/A   Partly Cloudy
6:55 PM 32.0 °F - 14.0 °F 48% 29.94 in 10.0 mi Calm Calm - N/A   Scattered Clouds
7:15 PM 35.6 °F - 15.8 °F 44% 29.95 in 10.0 mi Calm Calm - N/A   Scattered Clouds
7:35 PM 33.8 °F - 15.8 °F 48% 29.95 in 10.0 mi Calm Calm - N/A   Scattered Clouds
7:55 PM 35.6 °F 30.7 °F 15.8 °F 44% 29.95 in 10.0 mi NW 5.8 mph - N/A   Mostly Cloudy
8:15 PM 35.6 °F 29.9 °F 17.6 °F 48% 29.95 in 10.0 mi NW 6.9 mph - N/A   Mostly Cloudy
8:35 PM 35.6 °F 29.2 °F 23.0 °F 60% 29.96 in 10.0 mi WNW 8.1 mph - N/A   Mostly Cloudy
8:55 PM 35.6 °F 29.2 °F 23.0 °F 60% 29.96 in 10.0 mi NW 8.1 mph - N/A   Overcast
9:15 PM 33.8 °F 27.0 °F 24.8 °F 70% 29.96 in 10.0 mi NW 8.1 mph - N/A   Scattered Clouds
9:35 PM 33.8 °F 27.0 °F 24.8 °F 70% 29.97 in 10.0 mi NW 8.1 mph - N/A   Mostly Cloudy
9:55 PM 32.0 °F 25.6 °F 24.8 °F 75% 29.97 in 10.0 mi WNW 6.9 mph - N/A   Scattered Clouds
10:15 PM 32.0 °F 25.6 °F 24.8 °F 75% 29.97 in 10.0 mi WNW 6.9 mph - N/A   Clear
10:35 PM 32.0 °F 25.6 °F 24.8 °F 75% - 10.0 mi NW 6.9 mph - N/A   Clear
10:55 PM 32.0 °F 26.4 °F 24.8 °F 75% 29.97 in 10.0 mi WNW 5.8 mph - N/A   Clear
11:15 PM 32.0 °F 26.4 °F 24.8 °F 75% 29.97 in 10.0 mi WNW 5.8 mph - N/A   Clear
11:35 PM 30.2 °F 24.3 °F 24.8 °F 80% 29.97 in 10.0 mi West 5.8 mph - N/A   Clear
11:55 PM 28.4 °F 24.6 °F 23.0 °F 80% 29.97 in 10.0 mi WNW 3.5 mph - N/A   Clear